HS5SQI-1 Weather Reports


time (UTC)temp
C
wind
direction
speed
KPH
gust
KPH
rain 1hr
cm
rain 24hr
cm
rain mn
cm
humidity
%
barometer
mb
20260504210521 25 0 0.0 0.0 0.00 0.00 0.00 99 968.0
20260504205459 25 0 0.0 0.0 0.00 0.00 0.00 99 968.0
20260504204437 25 0 0.0 0.0 0.00 0.00 0.00 99 968.0
20260504203415 26 0 0.0 0.0 0.00 0.00 0.00 99 968.0
20260504202353 26 0 0.0 0.0 0.00 0.00 0.00 99 968.0
20260504201331 26 0 0.0 0.0 0.00 0.00 0.00 99 968.0
20260504200309 26 0 0.0 0.0 0.00 0.00 0.00 99 968.0
20260504195407 25 0 0.0 0.0 0.00 0.00 0.00 99 968.0
20260504194345 26 0 0.0 0.0 0.00 0.00 0.00 99 968.0
20260504193323 26 0 0.0 0.0 0.00 0.00 0.00 99 968.0
20260504192301 26 0 0.0 0.0 0.00 0.00 0.00 99 968.0
20260504191239 26 0 0.0 0.0 0.00 0.00 0.00 99 968.0
20260504190217 26 0 0.0 0.0 0.00 0.00 0.00 99 968.0
20260504185155 26 0 0.0 0.0 0.00 0.00 0.00 99 968.0
20260504184133 26 0 0.0 0.0 0.00 0.00 0.00 99 968.0
20260504183111 26 0 0.0 0.0 0.00 0.00 0.00 99 968.0
20260504182049 26 0 0.0 0.0 0.00 0.00 0.00 99 968.0
20260504181027 26 0 0.0 0.0 0.00 0.00 0.00 99 968.0
20260504180005 26 0 0.0 0.0 0.00 0.00 0.00 99 968.0
20260504174943 26 0 0.0 0.0 0.00 0.00 0.00 99 968.0
20260504173921 26 0 0.0 0.0 0.00 0.00 0.00 99 968.0
20260504172859 26 0 0.0 0.0 0.00 0.00 0.00 99 968.0
20260504171837 26 0 0.0 0.0 0.00 0.00 0.00 99 968.0
20260504170815 27 0 0.0 0.0 0.00 0.00 0.00 99 968.0
20260504150324 30 0 0.0 0.0 0.00 0.00 0.00 99 966.0
20260504141134 33 0 0.0 0.0 0.00 0.00 0.00 77 965.0
20260504140112 33 0 0.0 0.0 0.00 0.00 0.00 77 965.0
20260504110458 35 0 0.0 0.0 0.00 0.00 0.00 50 962.0
20260504100248 36 0 0.0 0.0 0.00 0.00 0.00 46 962.0
20260504081906 35 0 0.0 0.0 0.00 0.00 0.00 50 963.0
20260504080354 35 0 0.0 0.0 0.00 0.00 0.00 51 964.0
20260504070142 35 0 0.0 0.0 0.00 0.00 0.00 64 965.0
20260504050233 32 0 0.0 0.0 0.00 0.00 0.00 87 967.0
20260504045211 32 0 0.0 0.0 0.00 0.00 0.00 90 967.0
20260504044149 31 0 0.0 0.0 0.00 0.00 0.00 90 968.0
20260504043127 31 0 0.0 0.0 0.00 0.00 0.00 97 968.0
20260504042105 31 0 0.0 0.0 0.00 0.00 0.00 99 968.0
20260504041043 30 0 0.0 0.0 0.00 0.00 0.00 99 968.0
20260504040021 30 0 0.0 0.0 0.00 0.00 0.00 99 968.0
20260504034959 30 0 0.0 0.0 0.00 0.00 0.00 99 968.0
20260504033937 29 0 0.0 0.0 0.00 0.00 0.00 99 968.0
20260504032915 28 0 0.0 0.0 0.00 0.00 0.00 99 968.0
20260504031853 28 0 0.0 0.0 0.00 0.00 0.00 99 968.0
20260504030831 28 0 0.0 0.0 0.00 0.00 0.00 99 968.0
20260504025809 28 0 0.0 0.0 0.00 0.00 0.00 99 969.0
20260504024747 27 0 0.0 0.0 0.00 0.00 0.00 99 969.0
20260504023725 27 0 0.0 0.0 0.00 0.00 0.00 99 969.0
20260504022703 27 0 0.0 0.0 0.00 0.00 0.00 99 969.0
20260504021641 27 0 0.0 0.0 0.00 0.00 0.00 99 969.0
20260504020619 26 0 0.0 0.0 0.00 0.00 0.00 99 969.0
20260504015557 26 0 0.0 0.0 0.00 0.00 0.00 99 968.0
20260504014535 26 0 0.0 0.0 0.00 0.00 0.00 99 968.0
20260504013513 26 0 0.0 0.0 0.00 0.00 0.00 99 968.0
20260504012451 26 0 0.0 0.0 0.00 0.00 0.00 99 968.0
20260504011429 25 0 0.0 0.0 0.00 0.00 0.00 99 968.0
20260504010407 26 0 0.0 0.0 0.00 0.00 0.00 99 968.0
20260504005345 26 0 0.0 0.0 0.00 0.00 0.00 99 968.0
20260504004323 26 0 0.0 0.0 0.00 0.00 0.00 99 968.0
20260504003301 26 0 0.0 0.0 0.00 0.00 0.00 99 967.0
20260504002239 25 0 0.0 0.0 0.00 0.00 0.00 99 967.0
20260504001217 25 0 0.0 0.0 0.00 0.00 0.00 99 967.0
20260504000155 25 0 0.0 0.0 0.00 0.00 0.00 99 967.0
20260503235133 24 0 0.0 0.0 0.00 0.00 0.00 99 967.0
20260503234111 24 0 0.0 0.0 0.00 0.00 0.00 99 967.0
20260503233049 24 0 0.0 0.0 0.00 0.00 0.00 99 967.0
20260503232027 24 0 0.0 0.0 0.00 0.00 0.00 99 967.0
20260503231005 25 0 0.0 0.0 0.00 0.00 0.00 99 967.0
20260503225943 25 0 0.0 0.0 0.00 0.00 0.00 99 967.0
20260503224921 26 0 0.0 0.0 0.00 0.00 0.00 99 967.0
20260503223859 26 0 0.0 0.0 0.00 0.00 0.00 99 967.0
20260503222836 26 0 0.0 0.0 0.00 0.00 0.00 99 967.0
20260503221814 26 0 0.0 0.0 0.00 0.00 0.00 99 966.0
20260503220752 26 0 0.0 0.0 0.00 0.00 0.00 99 966.0
20260503215730 26 0 0.0 0.0 0.00 0.00 0.00 99 966.0
20260503214709 26 0 0.0 0.0 0.00 0.00 0.00 99 966.0
20260503213647 26 0 0.0 0.0 0.00 0.00 0.00 99 966.0
20260503212625 25 0 0.0 0.0 0.00 0.00 0.00 99 966.0
20260503211602 25 0 0.0 0.0 0.00 0.00 0.00 99 966.0